Lubbock Preston Smith International Airport Lubbock US
ICAO: KLBB
IATA: LBB
Category: Large
Scheduled Services: Yes

Elevation: 3282 ft
TransAlt. 18000 ft.

Airport Communications:
APP:119.2
ATIS:125.3
CLNC DEL:125.8
DEP:119.2
GND:121.9
FORT WORTH RDO:122.55
TWR:120.5
UNICOM:122.95

KLBB Zoom In..

If you have problems with the map follow the link
https://www.worldairports.se/pages/airport.php?
ICAO=KLBB

Runways:

(A) RW 08 length 8003 ft width 150 ft
---- / hdg 81

(B) RW 17L length 2891 ft width 75 ft
---- / hdg 171

(C) RW 17R length 11500 ft width 150 ft
ILS 111.70 / hdg 171

(D) RW 26 length 8003 ft width 150 ft
ILS 111.90 / hdg 261

(E) RW 35L length 11500 ft width 150 ft
---- / hdg 351

(F) RW 35R length 2891 ft width 75 ft
---- / hdg 351

Location; KLBB
Day. 24 / Time. 10.53 Zulu
* Altimeter: 30.00
* Temperature: 03° c. 37.4°f.
* Wind from: 290° Speed 09 kn.
Dewpoint: -02° c.
Visibility: 10 Statute Miles.
Clouds: Few 26000 ft.

KLBB 241053Z 29009KT 10SM FEW260 03/M02 A3000 RMK AO2 SLP138 T00331022 $


Wind From 290°
Speed 09 kn.

 
 
jpsmedia.com for Web Design worldairports.se 2019   terms of use